When you browse on this site, cookies collect data to enhance your experience and personalize the content and advertising you see.
Visit our Privacy Policy to learn more. By continuing to use the site, you agree to this use of cookies and data.
  • In Portugal
  • List of Countries
  • For 7 days
  • Water Temperature
  • Weather Map
  • Weather Widgets
  • user-avatar
    Login

    Hourly Weather Mlynczyska

    Today, 23 September, Monday

    Time Temperature Precipitation Wind Pressure Humidity
    00:00 +9°C° 0 mm 1 mps 706 mmHg 77%
    01:00 +9°C° 0 mm 1 mps 706 mmHg 77%
    02:00 +9°C° 0 mm 1 mps 705 mmHg 76%
    03:00 +9°C° 0 mm 1 mps 705 mmHg 74%
    04:00 +9°C° 0 mm 1 mps 705 mmHg 73%
    05:00 +10°C° 0 mm 1 mps 705 mmHg 72%
    06:00 +11°C° 0 mm 1 mps 705 mmHg 71%
    07:00 +11°C° 0 mm 1 mps 706 mmHg 70%
    08:00 +12°C° 0.2 mm 1 mps 706 mmHg 69%
    09:00 +13°C° 0.2 mm 1 mps 706 mmHg 68%
    10:00 +14°C° 0.2 mm 1 mps 706 mmHg 68%
    11:00 +15°C° 0.2 mm 1 mps 706 mmHg 67%
    12:00 +16°C° 0.2 mm 1 mps 706 mmHg 66%
    13:00 +18°C° 0.2 mm 1 mps 706 mmHg 66%
    14:00 +16°C° 0 mm 1 mps 706 mmHg 69%
    15:00 +16°C° 0 mm 1 mps 706 mmHg 73%
    16:00 +16°C° 0 mm 1 mps 705 mmHg 76%
    17:00 +14°C° 0 mm 1 mps 705 mmHg 82%
    18:00 +13°C° 0 mm 1 mps 705 mmHg 87%
    19:00 +11°C° 0 mm 1 mps 705 mmHg 92%
    20:00 +11°C° 0 mm 1 mps 705 mmHg 92%
    21:00 +9°C° 0 mm 0 mps 705 mmHg 93%
    22:00 +9°C° 0 mm 0 mps 705 mmHg 93%
    23:00 +9°C° 0 mm 0 mps 705 mmHg 93%

    Tomorrow, 24 September, Tuesday

    Time Temperature Precipitation Wind Pressure Humidity
    00:00 +8°C° 0 mm 0 mps 705 mmHg 93%
    01:00 +8°C° 0 mm 0 mps 705 mmHg 94%
    02:00 +8°C° 0 mm 0 mps 705 mmHg 94%
    03:00 +8°C° 0 mm 0 mps 705 mmHg 94%
    04:00 +7°C° 0 mm 0 mps 705 mmHg 94%
    05:00 +8°C° 0 mm 0 mps 705 mmHg 92%
    06:00 +9°C° 0 mm 0 mps 705 mmHg 89%
    07:00 +10°C° 0 mm 0 mps 705 mmHg 87%
    08:00 +12°C° 0 mm 0 mps 705 mmHg 77%
    09:00 +15°C° 0 mm 1 mps 706 mmHg 68%
    10:00 +18°C° 0 mm 1 mps 706 mmHg 59%
    11:00 +19°C° 0 mm 1 mps 706 mmHg 56%
    12:00 +18°C° 0 mm 2 mps 706 mmHg 52%
    13:00 +19°C° 0 mm 2 mps 705 mmHg 49%
    14:00 +18°C° 0 mm 2 mps 705 mmHg 54%
    15:00 +18°C° 0 mm 2 mps 705 mmHg 58%
    16:00 +17°C° 0 mm 2 mps 704 mmHg 63%
    17:00 +15°C° 0 mm 2 mps 704 mmHg 70%
    18:00 +13°C° 0 mm 1 mps 704 mmHg 78%
    19:00 +11°C° 0 mm 1 mps 704 mmHg 86%
    20:00 +10°C° 0 mm 1 mps 704 mmHg 86%
    21:00 +10°C° 0 mm 1 mps 704 mmHg 87%
    22:00 +10°C° 0 mm 1 mps 704 mmHg 88%
    23:00 +10°C° 0 mm 1 mps 703 mmHg 86%

    Day after tomorrow, 25 September, Wednesday

    Time Temperature Precipitation Wind Pressure Humidity
    00:00 +10°C° 0 mm 1 mps 703 mmHg 83%
    01:00 +10°C° 0 mm 1 mps 703 mmHg 81%
    02:00 +10°C° 0 mm 1 mps 703 mmHg 80%
    03:00 +10°C° 0 mm 1 mps 703 mmHg 78%
    04:00 +10°C° 0 mm 1 mps 703 mmHg 76%
    05:00 +11°C° 0 mm 1 mps 703 mmHg 75%
    06:00 +12°C° 0 mm 1 mps 703 mmHg 74%
    07:00 +12°C° 0 mm 1 mps 703 mmHg 73%
    08:00 +14°C° 0 mm 1 mps 703 mmHg 67%
    09:00 +16°C° 0 mm 1 mps 703 mmHg 61%
    10:00 +19°C° 0 mm 1 mps 704 mmHg 56%
    11:00 +19°C° 0.1 mm 1 mps 704 mmHg 57%
    12:00 +19°C° 0.1 mm 2 mps 703 mmHg 57%
    13:00 +19°C° 0.1 mm 2 mps 703 mmHg 58%
    14:00 +17°C° 0.5 mm 2 mps 703 mmHg 67%
    15:00 +16°C° 0.5 mm 2 mps 703 mmHg 75%
    16:00 +15°C° 0.5 mm 2 mps 702 mmHg 84%
    17:00 +14°C° 0.1 mm 2 mps 702 mmHg 86%
    18:00 +13°C° 0.1 mm 1 mps 702 mmHg 89%
    19:00 +12°C° 0.1 mm 1 mps 702 mmHg 91%
    20:00 +11°C° 0 mm 1 mps 702 mmHg 92%
    21:00 +11°C° 0 mm 1 mps 703 mmHg 92%
    22:00 +10°C° 0 mm 2 mps 703 mmHg 92%
    23:00 +10°C° 0 mm 2 mps 703 mmHg 92%

    26 September, Thursday

    Time Temperature Precipitation Wind Pressure Humidity
    00:00 +10°C° 0 mm 2 mps 703 mmHg 92%
    01:00 +10°C° 0 mm 2 mps 703 mmHg 92%
    02:00 +10°C° 0 mm 2 mps 703 mmHg 92%
    03:00 +10°C° 0 mm 2 mps 703 mmHg 91%
    04:00 +10°C° 0 mm 2 mps 703 mmHg 91%
    05:00 +10°C° 0 mm 2 mps 704 mmHg 90%
    06:00 +11°C° 0 mm 1 mps 704 mmHg 89%
    07:00 +11°C° 0 mm 1 mps 704 mmHg 89%
    08:00 +12°C° 0.1 mm 2 mps 704 mmHg 84%
    09:00 +13°C° 0.1 mm 2 mps 705 mmHg 79%
    10:00 +14°C° 0.1 mm 2 mps 705 mmHg 74%
    11:00 +15°C° 0.3 mm 2 mps 705 mmHg 72%
    12:00 +15°C° 0.3 mm 2 mps 705 mmHg 70%
    13:00 +16°C° 0.3 mm 2 mps 705 mmHg 68%
    14:00 +16°C° 0.4 mm 2 mps 705 mmHg 71%
    15:00 +15°C° 0.4 mm 2 mps 705 mmHg 75%
    16:00 +15°C° 0.4 mm 1 mps 705 mmHg 78%
    17:00 +13°C° 0 mm 1 mps 705 mmHg 82%
    18:00 +12°C° 0 mm 1 mps 705 mmHg 86%
    19:00 +10°C° 0 mm 1 mps 705 mmHg 90%
    20:00 +10°C° 0 mm 1 mps 705 mmHg 90%
    21:00 +10°C° 0 mm 1 mps 706 mmHg 91%
    22:00 +9°C° 0 mm 1 mps 706 mmHg 92%
    23:00 +9°C° 0 mm 1 mps 706 mmHg 92%

    27 September, Friday

    Time Temperature Precipitation Wind Pressure Humidity
    00:00 +9°C° 0 mm 1 mps 706 mmHg 92%
    01:00 +9°C° 0 mm 1 mps 706 mmHg 92%
    02:00 +9°C° 0 mm 1 mps 706 mmHg 92%
    03:00 +9°C° 0 mm 1 mps 706 mmHg 92%
    04:00 +9°C° 0 mm 1 mps 706 mmHg 92%
    05:00 +9°C° 0 mm 1 mps 706 mmHg 90%
    06:00 +10°C° 0 mm 1 mps 707 mmHg 88%
    07:00 +11°C° 0 mm 1 mps 707 mmHg 86%
    08:00 +13°C° 0 mm 1 mps 707 mmHg 80%
    09:00 +15°C° 0 mm 1 mps 708 mmHg 73%
    10:00 +18°C° 0 mm 1 mps 708 mmHg 66%
    11:00 +19°C° 0 mm 1 mps 708 mmHg 63%
    12:00 +20°C° 0 mm 1 mps 708 mmHg 60%
    13:00 +20°C° 0 mm 2 mps 708 mmHg 56%
    14:00 +20°C° 0 mm 1 mps 708 mmHg 62%
    15:00 +20°C° 0 mm 1 mps 707 mmHg 67%
    16:00 +19°C° 0 mm 1 mps 707 mmHg 72%
    17:00 +16°C° 0 mm 1 mps 707 mmHg 78%
    18:00 +15°C° 0 mm 1 mps 707 mmHg 83%
    19:00 +13°C° 0 mm 1 mps 707 mmHg 88%
    20:00 +13°C° 0 mm 1 mps 707 mmHg 89%
    21:00 +13°C° 0 mm 1 mps 707 mmHg 90%
    22:00 +12°C° 0 mm 2 mps 707 mmHg 90%
    23:00 +12°C° 0 mm 2 mps 707 mmHg 91%

    28 September, Saturday

    Time Temperature Precipitation Wind Pressure Humidity
    00:00 +12°C° 0 mm 2 mps 706 mmHg 91%
    01:00 +10°C° 0 mm 2 mps 706 mmHg 91%
    02:00 +10°C° 0 mm 2 mps 706 mmHg 91%
    03:00 +10°C° 0 mm 2 mps 706 mmHg 91%
    04:00 +11°C° 0 mm 1 mps 706 mmHg 91%
    05:00 +10°C° 0 mm 2 mps 706 mmHg 89%
    06:00 +12°C° 0 mm 2 mps 706 mmHg 87%
    07:00 +13°C° 0 mm 2 mps 706 mmHg 84%
    08:00 +14°C° 0 mm 2 mps 706 mmHg 78%
    09:00 +16°C° 0 mm 2 mps 707 mmHg 72%
    10:00 +18°C° 0 mm 2 mps 707 mmHg 66%
    11:00 +17°C° 0.2 mm 2 mps 707 mmHg 70%
    12:00 +17°C° 0.2 mm 2 mps 706 mmHg 75%
    13:00 +16°C° 0.2 mm 2 mps 706 mmHg 80%
    14:00 +15°C° 0.4 mm 2 mps 706 mmHg 85%
    15:00 +14°C° 0.4 mm 1 mps 705 mmHg 89%
    16:00 +13°C° 0.4 mm 1 mps 705 mmHg 94%
    17:00 +13°C° 0 mm 1 mps 705 mmHg 94%
    18:00 +12°C° 0 mm 1 mps 705 mmHg 94%
    19:00 +12°C° 0 mm 1 mps 705 mmHg 94%
    20:00 +12°C° 0 mm 1 mps 705 mmHg 94%
    21:00 +11°C° 0 mm 1 mps 705 mmHg 94%
    22:00 +10°C° 0 mm 2 mps 705 mmHg 93%
    23:00 +10°C° 0 mm 2 mps 705 mmHg 93%
    Show more